Regional Weather Roundup
Issued by NWS

Home | Current Version | Previous Version | Text Only | Print | Product List | Glossary Off
Versions: 1 2 3 4 5 6 7 8 9 10 11 12 13 14 15 16 17 18 19 20 21 22 23 24 25 26 27 28 29 30 31 32 33 34 35 36 37 38 39 40 41 42 43 44 45 46 47 48 49 50

000
ASUS45 KTFX 240004
RWRMT
MONTANA HOURLY WEATHER ROUNDUP
NATIONAL WEATHER SERVICE GREAT FALLS MT
604 PM MDT WED JUL 23 2014

NOTE: "FAIR" INDICATES FEW OR NO CLOUDS BELOW 12000 FEET WITH NO
SIGNIFICANT WEATHER AND/OR OBSTRUCTIONS TO VISIBILITY.

* THESE STATIONS ARE NOT UNDER NWS QUALITY CONTROL. THEY DO NOT
   REPORT WEATHER SUCH AS PRECIPITATION OR FOG.

MTZ001>007-043-240100-
WEST OF THE DIVIDE
CITY           SKY/WX    TMP DP  RH WIND       PRES   REMARKS
KALISPELL      CLEAR     84  50  31 CALM      29.85F
MISSOULA       MOCLDY    88  48  25 SW3       29.88F
BUTTE          CLEAR     84  39  20 SW5       30.05F
MULLAN PASS    TSTM      63  45  52 VRB5      30.04F
* ESSEX        N/A       86  41  20 N4         N/A
* LINCOLN      N/A       85  47  27 S6G14      N/A
* LOOKOUT PASS N/A       68  57  68 NE1G16     N/A
* POLSON       N/A       82  53  37 N3         N/A
* RONAN APT    PTCLDY    88  61  40 N7         N/A   HI  88
* SEELEY LAKE  N/A       84  47  28 S4G11      N/A
* THOMP F APT  CLOUDY    84  33  16 S13G24     N/A
* YAAK HILL    N/A       89  47  23 S2G7       N/A
$$

MTZ008-052>055-240100-
SOUTHWEST MONTANA
CITY           SKY/WX    TMP DP  RH WIND       PRES   REMARKS
BOZEMAN        MOCLDY    88  46  23 CALM      30.00F
DILLON         PTCLDY    90  46  22 NE9       30.01F
W YELLOWSTONE  CLEAR     82  27  13 SW13G24   30.21F
* THREE FORKS  CLOUDY    90  63  41 NE5        N/A   HI  91
* BOULDER HILL N/A       83  43  24 SW9G16     N/A
* MONIDA PASS  N/A       81  29  15 S22G32     N/A
* RAYNOLDS PAS N/A       84  63  49 S12G24     N/A   HI  85
* WHITEHALL    N/A       89  53  29 SE4G10     N/A
* WISE RIVER   N/A       86  33  15 W12G21     N/A
$$

MTZ009>010-012-014-046-048-049-054-240100-
EAST SLOPES AND CENTRAL MONTANA
CITY           SKY/WX    TMP DP  RH WIND       PRES   REMARKS
CUT BANK       CLEAR     86  55  35 NE10      29.95F
GREAT FALLS    CLEAR     91  48  23 S7        29.93F
HELENA         PTCLDY    90  50  25 E10       29.94F
MALMSTROM AFB  MOCLDY    91  50  25 E7        29.94F
* CONRAD       CLEAR     88  55  33 SE9        N/A
* DEARBORN     N/A       92  45  20 S18G24     N/A
* EAST GLACIER N/A       82  40  22 W11G19     N/A
* MONARCH      N/A       85  39  20 S8         N/A
* PENDROY      N/A       86  39  19 SW12G24    N/A
* ROGERS PASS  N/A       81  48  32 S3G14      N/A
* SAINT MARY   N/A       83  45  26 W6G11      N/A
* SWEET GRASS  N/A       85  51  31 SW8        N/A
$$

MTZ011-013-016-021-035-040-045-047-050-051-240100-
NORTH CENTRAL MONTANA
CITY           SKY/WX    TMP DP  RH WIND       PRES   REMARKS
HAVRE          PTCLDY    93  55  28 SE6       29.88F
LEWISTOWN      MOCLDY    90  54  29 S5        30.01F
* CHESTER      N/A       92  46  20 S3G12      N/A
* DENTON       N/A       91  53  27 N/A        N/A
* JUDITH GAP   N/A       85  51  31 N/A        N/A
* LOMA         N/A       93  51  24 SE4G9      N/A
$$

MTZ017>020-022>027-061-062-240100-
NORTHEAST MONTANA
CITY           SKY/WX    TMP DP  RH WIND       PRES   REMARKS
GLASGOW        PTCLDY    91  57  32 E17       29.94F
GLENDIVE       PTCLDY    90  64  42 SE18G24   30.01F HI  91
JORDAN         PTCLDY    93  63  37 E16G23    29.93F
SIDNEY         PTCLDY    90  64  42 SE12G18   30.01F HI  91
WOLF POINT     PTCLDY    91  59  34 E13G22    29.96F
* BEAVER HILL  N/A       84  63  49 SE22G29    N/A   HI  85
* CIRCLE       N/A       89  65  45 SE16       N/A   HI  91
* LINDSAY DVD  N/A       85  64  49 SE14G23    N/A   HI  86
* NAVAJO       N/A       82  63  53 SE12G23    N/A   HI  83
$$

MTZ028>042-056>058-240100-
SOUTHCENTRAL AND SOUTHEAST MONTANA
CITY           SKY/WX    TMP DP  RH WIND       PRES   REMARKS
BAKER          PTCLDY    84  64  51 SE21G29   30.04F HI  85
BILLINGS       PTCLDY    90  57  33 E6        29.98F
LIVINGSTON     PTCLDY    93  45  19 VRB6      29.99F
MILES CITY     PTCLDY    93  64  38 E15       29.92F
* LAUREL APT   PTCLDY    90  55  31 NE5        N/A
* ROUNDUP APT  PTCLDY    91  55  30 N/A        N/A
* ALZADA       N/A       89  65  45 E11        N/A   HI  91
* HYSHAM       N/A       92  60  34 N6G12      N/A
* LAME DEER    N/A       89  62  41 S8         N/A   HI  90
* REED POINT   N/A       96  51  22 NE5        N/A
* ROSCOE HILL  N/A       88  51  28 NE9        N/A
$$

REGIONAL REPORTS...DAKOTAS
CITY           SKY/WX    TMP DP  RH WIND       PRES   REMARKS
WILLISTON      PTCLDY    86  61  43 SE17G25   30.05F HI  86
DICKINSON      PTCLDY    79  63  58 SE18G26   30.08F
CROSBY         N/A       75  72  90 E15G21    30.09F
TIOGA          MOCLDY    79  66  65 SE20G26   30.13F
WATFORD CITY   CLEAR     82  63  53 SE22      30.04F HI  83
BISMARCK       PTCLDY    82  61  49 SE17      30.13F HI  83
GRAND FORKS    PTCLDY    73  59  62 NW5       30.21F
FARGO          CLEAR     75  57  54 NE8       30.20F
BUFFALO SD     PTCLDY    84  61  46 SE24G30   29.98F HI  84
RAPID CITY     CLEAR     84  64  51 SE14      30.09F HI  85
$$

REGIONAL REPORTS...WYOMING/IDAHO/WASHINGTON
CITY           SKY/WX    TMP DP  RH WIND       PRES   REMARKS
GILLETTE       PTCLDY    93  57  30 SE21G28   30.03F
SHERIDAN       MOCLDY    91  64  41 CALM      29.97F HI  93
YELLOWSTONE LA PTCLDY    81  36  20 N/A       30.34F
SALMON         MOCLDY    84  48  29 N9        29.87F
MULLAN PASS    TSTM      63  45  52 VRB5      30.04S
SAND POINT     MOCLDY    79  57  47 CALM      29.79F
SPOKANE        LGT RAIN  66  59  78 SW30G38   29.95R

$$




USA.gov is the U.S. government's official web portal to all federal, state and local government web resources and services.